Regional Weather Roundup
Issued by NWS

Home | Current Version | Previous Version | Graphics & Text | Print | Product List | Glossary On
Versions: 1 2 3 4 5 6 7 8 9 10 11 12 13 14 15 16 17 18 19 20 21 22 23 24 25 26 27 28
000
ASUS45 KPSR 190510
RWRAZ

ARIZONA HOURLY REGIONAL WEATHER ROUNDUP
NATIONAL WEATHER SERVICE PHOENIX AZ
1000 PM MST MON SEP 18 2017

NOTE: FAIR INDICATES FEW OR NO CLOUDS BELOW 12,000 FEET WITH NO
SIGNIFICANT WEATHER AND/OR OBSTRUCTIONS TO VISIBILITY.

AZZ001>003-036-190600-
NORTHWEST ARIZONA

CITY           SKY/WX    TMP DP  RH WIND       PRES   REMARKS
BULLHEAD CITY  CLEAR     90  34  13 S14       29.72F
KINGMAN        CLEAR     70  41  34 S12       29.92F
$$

AZZ004>008-015-016-018-190600-
NORTH CENTRAL ARIZONA

CITY           SKY/WX    TMP DP  RH WIND       PRES   REMARKS
GRAND CANYON   CLEAR     56  23  27 S9        30.13F
WILLIAMS       CLEAR     57  23  26 S8        30.15F
PRESCOTT       CLEAR     57  35  43 S6        30.08S
FLAGSTAFF      CLEAR     53  23  31 W8        30.18F
PAYSON           N/A     63  19  19 CALM      30.11S
PAGE           CLEAR     76  23  14 SW7       29.90F
$$

AZZ009>014-017-190600-
NORTHEAST ARIZONA

CITY           SKY/WX    TMP DP  RH WIND       PRES   REMARKS
WINSLOW        CLEAR     59  18  20 S7        30.07S
SAINT JOHNS    CLEAR     60  27  28 W8        30.12S
WINDOW ROCK    CLEAR     56  16  20 S6        30.17R
SHOW LOW       CLEAR     61  27  27 S13       30.17S
$$

AZZ540-542>544-546-548-190600-
GREATER PHOENIX AREA

CITY           SKY/WX    TMP DP  RH WIND       PRES   REMARKS
PHOENIX        CLEAR     85  40  20 SW5       29.81R
BUCKEYE        CLEAR     77  28  16 W3        29.82S
LUKE AFB       CLEAR     82  36  18 S3        29.82S
DEER VALLEY    CLEAR     79  31  17 CALM      29.84R
SCOTTSDALE     CLEAR     81  37  20 CALM      29.85S
MESA-GATEWAY   CLEAR     77  36  22 SE5       29.85
$$

AZZ539-553-190600-
SOUTHWEST MARICOPA COUNTY AND PINAL COUNTY

CITY           SKY/WX    TMP DP  RH WIND       PRES   REMARKS
CASA GRANDE    NOT AVBL
GILA BEND      CLEAR     81  35  19 S9        29.80S
$$

AZZ503-504-507>509-190600-
SOUTHEAST ARIZONA

CITY           SKY/WX    TMP DP  RH WIND       PRES   REMARKS
TUCSON         CLEAR     83  49  30 SW3       29.96R
DAVIS-MONTHAN  CLEAR     80  47  31 S5        29.94R
NOGALES        CLEAR     72  53  51 CALM      30.04S
SIERRA VISTA   CLEAR     74  50  43 SW9       30.10S
DOUGLAS        CLEAR     73  48  41 N3        30.05S
SAFFORD        CLEAR     77  31  18 NW10      29.95R
$$

AZZ532-190600-
SOUTHWEST ARIZONA

CITY           SKY/WX    TMP DP  RH WIND       PRES   REMARKS
YUMA           CLEAR     82  46  28 SE3       29.78
$$

CAZ041-043-047-048-061-525>527-560>570-190600-
SOUTHERN CALIFORNIA

CITY           SKY/WX    TMP DP  RH WIND       PRES   REMARKS
DOWNTOWN L.A.  CLOUDY    68  61  78 CALM      29.91S
L.A. AIRPORT   MOCLDY    66  61  84 SW5       29.92S
SAN DIEGO      PTCLDY    68  60  75 NW5       29.94S
BURBANK        CLOUDY    64  59  83 SE8       29.91F
ONTARIO        MOCLDY    65  60  84 W8        29.93R
RIVERSIDE      CLEAR     66  61  84 W8        29.93R
PALM SPRINGS   CLEAR     83  56  39 NW14      29.78F
EL CENTRO NAS  CLEAR     84  49  29 W13       29.77S
IMPERIAL       CLEAR     83  55  38 W8        29.75S
BLYTHE         CLEAR     86  51  29 S6        29.76S
NEEDLES        CLEAR     89  31  12 SW12      29.75F
$$

NVZ020-UTZ003-190600-
SOUTHERN NEVADA-UTAH

CITY           SKY/WX    TMP DP  RH WIND       PRES   REMARKS
LAS VEGAS      CLEAR     84  44  24 S10       29.76S
SALT LAKE CITY CLOUDY    71  46  40 W7        29.73R
$$

NMZ009-TXZ055-190600-
NEW MEXICO-WEST TEXAS

CITY           SKY/WX    TMP DP  RH WIND       PRES   REMARKS
ALBUQUERQUE    CLEAR     65  30  27 E6        30.06R
EL PASO        MOCLDY    83  48  29 W9        29.99F
$$


........................KEY........................
SKY/WX - SKY CONDITION/WEATHER
TMP    - TEMPERATURE IN FAHRENHEIT
DP     - DEW POINT IN FAHRENHEIT
RH     - RELATIVE HUMIDITY IN PERCENT
WIND   - DIRECTION AND SPEED IN MILES PER HOUR (MPH)
VRB    - VARIABLE WIND DIRECTION
PRES   - MEAN SEA LEVEL PRESSURE IN INCHES OF MERCURY
         F - FALLING PRESSURE   R - RISING PRESSURE
         S - STEADY PRESSURE
VSB    - VISIBILITY IN MILES
HX     - HEAT INDEX IN FAHRENHEIT
WCI    - WIND CHILL INDEX IN FAHRENHEIT
TC     - TEMPERATURE IN CELSIUS WHICH IS ALSO KNOWN AS
         TEMPERATURE IN CENTIGRADE
AFB    - AIR FORCE BASE
         LUKE AFB IS LUKE AIR FORCE BASE
         DAVIS-MONTHAN IS DAVIS-MONTHAN AIR FORCE BASE
NAS    - NAVAL AIR STATION
         EL CENTRO NAS IS EL CENTRO NAVAL AIR STATION
N/A    - NOT AVAILABLE





USA.gov is the U.S. government's official web portal to all federal, state and local government web resources and services.